TimeEDT,TemperatureF,Dew PointF,Humidity,Sea Level PressureIn,VisibilityMPH,Wind Direction,Wind SpeedMPH,Gust SpeedMPH,PrecipitationIn,Events,Conditions,WindDirDegrees,DateUTC
12:58 AM,51.1,41.7,70,30.33,10.0,Variable,1.2,-,N/A,,Clear,0,2013-10-14 04:58:00
1:58 AM,49.8,42.1,75,30.33,10.0,NNE,4.6,-,N/A,,Clear,20,2013-10-14 05:58:00
2:58 AM,48.4,41.4,77,30.34,10.0,Calm,Calm,-,N/A,,Clear,0,2013-10-14 06:58:00
3:58 AM,47.7,41.7,80,30.33,10.0,Calm,Calm,-,N/A,,Clear,0,2013-10-14 07:58:00
4:58 AM,47.8,42.1,80,30.34,10.0,NE,3.5,-,N/A,,Clear,40,2013-10-14 08:58:00
5:58 AM,46.9,41.9,83,30.34,10.0,Calm,Calm,-,N/A,,Clear,0,2013-10-14 09:58:00
6:58 AM,45.9,41.7,85,30.35,10.0,Calm,Calm,-,N/A,,Clear,0,2013-10-14 10:58:00
7:58 AM,43.5,41.2,91,30.36,10.0,Calm,Calm,-,N/A,,Clear,0,2013-10-14 11:58:00
8:58 AM,46.6,43.7,90,30.37,10.0,Calm,Calm,-,N/A,,Clear,0,2013-10-14 12:58:00
9:55 AM,53.6,48.9,84,30.36,10.0,NE,6.9,-,N/A,,Clear,50,2013-10-14 13:55:00
10:55 AM,60.8,51.4,71,30.34,10.0,ENE,8.1,-,N/A,,Clear,60,2013-10-14 14:55:00
11:55 AM,63.5,49.1,59,30.33,10.0,ENE,8.1,-,N/A,,Clear,70,2013-10-14 15:55:00
11:58 AM,63.5,49.1,59,30.33,10.0,ENE,6.9,-,N/A,,Clear,70,2013-10-14 15:58:00
12:58 PM,65.8,46.2,49,30.32,10.0,East,3.5,-,N/A,,Clear,80,2013-10-14 16:58:00
1:58 PM,66.9,43.0,42,30.29,10.0,Variable,5.8,-,N/A,,Clear,0,2013-10-14 17:58:00
2:58 PM,68.2,44.2,42,30.26,10.0,NNE,4.6,-,N/A,,Clear,20,2013-10-14 18:58:00
4:58 PM,69.3,44.4,41,30.23,10.0,North,6.9,-,N/A,,Clear,360,2013-10-14 20:58:00
5:58 PM,68.4,43.7,41,30.23,10.0,NNE,5.8,-,N/A,,Clear,20,2013-10-14 21:58:00
6:58 PM,63.7,47.3,55,30.24,10.0,Calm,Calm,-,N/A,,Clear,0,2013-10-14 22:58:00
7:58 PM,55.8,46.6,71,30.23,4.0,NE,8.1,-,N/A,,Haze,50,2013-10-14 23:58:00
8:58 PM,53.1,45.3,75,30.23,10.0,Calm,Calm,-,N/A,,Clear,0,2013-10-15 00:58:00
9:08 PM,53.6,46.4,77,30.20,8.0,Calm,Calm,-,N/A,,Clear,0,2013-10-15 01:08:00
9:28 PM,53.6,46.4,77,30.20,10.0,NNE,3.5,-,N/A,,Clear,20,2013-10-15 01:28:00
9:58 PM,54.1,45.5,73,30.21,10.0,Calm,Calm,-,N/A,,Clear,0,2013-10-15 01:58:00
10:38 PM,53.6,44.6,72,30.22,8.0,NNE,5.8,-,N/A,,Clear,20,2013-10-15 02:38:00
10:58 PM,54.3,45.3,72,30.23,10.0,NE,3.5,-,N/A,,Clear,50,2013-10-15 02:58:00
11:58 PM,54.0,46.4,76,30.23,10.0,NNE,5.8,-,N/A,,Clear,30,2013-10-15 03:58:00